Location: Home
(42.5358°N, 72.7383°W)
Time: 10:09:39
(UTC-04:00)

Kosmos-337 - Pass Details

Date: 10 July 2022
Orbit: 1467 x 1552 km, 74.0° (Epoch: 16 August)

Event Time Altitude Azimuth Distance (km) Brightness Sun altitude
Rises 01:38:50 0° 336° (NNW) 4,729 ? -24.5°
Reaches altitude 10° 01:41:51 10° 334° (NNW) 3,738 ? -24.4°
Maximum altitude 01:50:45 60° 258° (WSW) 1,726 ? -24.0°
Enters shadow 01:54:12 39° 199° (SSW) 2,148 ? -23.9°
